Wetterdaten: Mittwoch, 15.10.2014
Datum Zeit Temp. A. Feuchte A. Luftdruck Regen Wind Richtung Richtung Sonnenschein ET UV Solar Taupunkt Windchill Windben Empfang
15.10.2014 00:00 9,9 C 85 % 1007,8 hPa 0,0 l/m 0,0 km/h (0 Bft) S-SO 164 0 min 0,000 mm 0,0 UV-I 0 W/m 7,5 C 9,9 C 0,0 km/h (0 Bft) 0,00 %
15.10.2014 00:15 10,0 C 85 % 1007,8 hPa 0,0 l/m 0,0 km/h (0 Bft) S-SO 165 0 min 0,000 mm 0,0 UV-I 0 W/m 7,6 C 10,0 C 0,0 km/h (0 Bft) 0,00 %
15.10.2014 00:30 10,0 C 85 % 1007,9 hPa 0,0 l/m 0,0 km/h (0 Bft) S-SO 165 0 min 0,000 mm 0,0 UV-I 0 W/m 7,6 C 10,0 C 0,0 km/h (0 Bft) 0,00 %
15.10.2014 00:45 9,9 C 86 % 1007,8 hPa 0,0 l/m 0,0 km/h (0 Bft) S-SO 165 0 min 0,000 mm 0,0 UV-I 0 W/m 7,7 C 9,9 C 0,0 km/h (0 Bft) 0,00 %
15.10.2014 01:00 9,8 C 86 % 1007,7 hPa 0,0 l/m 0,0 km/h (0 Bft) S-SO 165 0 min 0,000 mm 0,0 UV-I 0 W/m 7,6 C 9,8 C 0,0 km/h (0 Bft) 0,00 %
15.10.2014 01:15 9,8 C 86 % 1007,7 hPa 0,0 l/m 0,0 km/h (0 Bft) S-SO 165 0 min 0,000 mm 0,0 UV-I 0 W/m 7,6 C 9,8 C 0,0 km/h (0 Bft) 0,00 %
15.10.2014 01:30 9,6 C 87 % 1007,5 hPa 0,0 l/m 0,0 km/h (0 Bft) S-SO 164 0 min 0,000 mm 0,0 UV-I 0 W/m 7,5 C 9,6 C 0,0 km/h (0 Bft) 0,00 %
15.10.2014 01:45 9,4 C 87 % 1007,8 hPa 0,0 l/m 0,0 km/h (0 Bft) S-SO 166 0 min 0,000 mm 0,0 UV-I 0 W/m 7,3 C 9,4 C 0,0 km/h (0 Bft) 0,00 %
15.10.2014 02:00 9,4 C 86 % 1007,5 hPa 0,0 l/m 0,0 km/h (0 Bft) S-SO 165 0 min 0,000 mm 0,0 UV-I 0 W/m 7,2 C 9,4 C 0,0 km/h (0 Bft) 0,00 %
15.10.2014 02:15 9,4 C 87 % 1007,3 hPa 0,0 l/m 0,0 km/h (0 Bft) S-SO 165 0 min 0,000 mm 0,0 UV-I 0 W/m 7,3 C 9,4 C 0,0 km/h (0 Bft) 0,00 %
15.10.2014 02:30 9,4 C 86 % 1007,1 hPa 0,0 l/m 0,0 km/h (0 Bft) S-SO 165 0 min 0,000 mm 0,0 UV-I 0 W/m 7,2 C 9,4 C 0,0 km/h (0 Bft) 0,00 %
15.10.2014 02:45 9,5 C 86 % 1007,1 hPa 0,0 l/m 0,0 km/h (0 Bft) S-SO 165 0 min 0,000 mm 0,0 UV-I 0 W/m 7,3 C 9,5 C 0,0 km/h (0 Bft) 0,00 %
15.10.2014 03:00 9,5 C 86 % 1007,2 hPa 0,0 l/m 0,0 km/h (0 Bft) S-SO 164 0 min 0,000 mm 0,0 UV-I 0 W/m 7,3 C 9,5 C 0,0 km/h (0 Bft) 0,00 %
15.10.2014 03:15 9,4 C 86 % 1006,9 hPa 0,0 l/m 0,0 km/h (0 Bft) S-SO 164 0 min 0,000 mm 0,0 UV-I 0 W/m 7,2 C 9,4 C 0,0 km/h (0 Bft) 0,00 %
15.10.2014 03:30 9,4 C 87 % 1007,0 hPa 0,0 l/m 0,0 km/h (0 Bft) S-SO 165 0 min 0,000 mm 0,0 UV-I 0 W/m 7,3 C 9,4 C 0,0 km/h (0 Bft) 0,00 %
15.10.2014 03:45 9,3 C 87 % 1006,9 hPa 0,0 l/m 0,0 km/h (0 Bft) S-SO 164 0 min 0,000 mm 0,0 UV-I 0 W/m 7,2 C 9,3 C 0,0 km/h (0 Bft) 0,00 %
15.10.2014 04:00 9,3 C 87 % 1007,0 hPa 0,0 l/m 0,0 km/h (0 Bft) S-SO 166 0 min 0,000 mm 0,0 UV-I 0 W/m 7,2 C 9,3 C 0,0 km/h (0 Bft) 0,00 %
15.10.2014 04:15 9,1 C 87 % 1007,0 hPa 0,0 l/m 0,0 km/h (0 Bft) S-SO 166 0 min 0,000 mm 0,0 UV-I 0 W/m 7,1 C 9,1 C 0,0 km/h (0 Bft) 0,00 %
15.10.2014 04:30 8,9 C 87 % 1007,0 hPa 0,0 l/m 0,0 km/h (0 Bft) S-SO 165 0 min 0,000 mm 0,0 UV-I 0 W/m 6,9 C 8,9 C 0,0 km/h (0 Bft) 0,00 %
15.10.2014 04:45 8,8 C 87 % 1006,8 hPa 0,0 l/m 0,0 km/h (0 Bft) S-SO 165 0 min 0,000 mm 0,0 UV-I 0 W/m 6,8 C 8,8 C 0,0 km/h (0 Bft) 0,00 %
15.10.2014 05:00 8,7 C 87 % 1006,8 hPa 0,0 l/m 0,0 km/h (0 Bft) S-SO 165 0 min 0,000 mm 0,0 UV-I 0 W/m 6,7 C 8,7 C 0,0 km/h (0 Bft) 0,00 %
15.10.2014 05:15 8,7 C 87 % 1006,9 hPa 0,0 l/m 0,0 km/h (0 Bft) S-SO 165 0 min 0,000 mm 0,0 UV-I 0 W/m 6,7 C 8,7 C 0,0 km/h (0 Bft) 0,00 %
15.10.2014 05:30 8,8 C 87 % 1006,9 hPa 0,0 l/m 0,0 km/h (0 Bft) S-SO 166 0 min 0,000 mm 0,0 UV-I 0 W/m 6,8 C 8,8 C 0,0 km/h (0 Bft) 0,00 %
15.10.2014 05:45 9,0 C 87 % 1006,8 hPa 0,0 l/m 0,0 km/h (0 Bft) S-SO 165 0 min 0,000 mm 0,0 UV-I 0 W/m 7,0 C 9,0 C 0,0 km/h (0 Bft) 0,00 %
15.10.2014 06:00 9,1 C 87 % 1006,4 hPa 0,0 l/m 0,0 km/h (0 Bft) S-SO 165 0 min 0,000 mm 0,0 UV-I 0 W/m 7,1 C 9,1 C 0,0 km/h (0 Bft) 0,00 %
15.10.2014 06:15 9,2 C 86 % 1006,5 hPa 0,0 l/m 0,0 km/h (0 Bft) S-SO 165 0 min 0,000 mm 0,0 UV-I 0 W/m 7,0 C 9,2 C 0,0 km/h (0 Bft) 0,00 %
15.10.2014 06:30 9,4 C 87 % 1006,7 hPa 0,0 l/m 0,0 km/h (0 Bft) S-SO 166 0 min 0,000 mm 0,0 UV-I 0 W/m 7,3 C 9,4 C 0,0 km/h (0 Bft) 0,00 %
15.10.2014 06:45 9,4 C 86 % 1006,8 hPa 0,0 l/m 0,0 km/h (0 Bft) S-SO 165 0 min 0,000 mm 0,0 UV-I 0 W/m 7,2 C 9,4 C 0,0 km/h (0 Bft) 0,00 %
15.10.2014 07:00 9,5 C 86 % 1006,8 hPa 0,0 l/m 0,0 km/h (0 Bft) SW 228 0 min 0,000 mm 0,0 UV-I 0 W/m 7,3 C 9,5 C 0,0 km/h (0 Bft) 0,00 %
15.10.2014 07:15 9,6 C 86 % 1007,0 hPa 0,0 l/m 0,0 km/h (0 Bft) SW 229 0 min 0,000 mm 0,0 UV-I 0 W/m 7,4 C 9,6 C 0,0 km/h (0 Bft) 0,00 %
15.10.2014 07:30 9,7 C 87 % 1007,4 hPa 0,0 l/m 0,0 km/h (0 Bft) S-SW 204 0 min 0,000 mm 0,0 UV-I 0 W/m 7,6 C 9,7 C 0,0 km/h (0 Bft) 0,00 %
15.10.2014 07:45 9,8 C 87 % 1007,5 hPa 0,0 l/m 0,0 km/h (0 Bft) W-SW 238 0 min 0,000 mm 0,0 UV-I 0 W/m 7,7 C 9,8 C 0,0 km/h (0 Bft) 0,00 %
15.10.2014 08:00 10,0 C 87 % 1007,6 hPa 0,0 l/m 0,0 km/h (0 Bft) SW 215 0 min 0,000 mm 0,0 UV-I 15 W/m 7,9 C 10,0 C 0,0 km/h (0 Bft) 0,00 %
15.10.2014 08:15 10,2 C 87 % 1007,5 hPa 0,0 l/m 0,0 km/h (0 Bft) SW 217 0 min 0,000 mm 1,0 UV-I 30 W/m 8,1 C 10,2 C 0,0 km/h (0 Bft) 0,00 %
15.10.2014 08:30 10,4 C 86 % 1007,6 hPa 0,0 l/m 0,0 km/h (0 Bft) W-SW 252 0 min 0,000 mm 1,0 UV-I 46 W/m 8,2 C 10,4 C 0,0 km/h (0 Bft) 0,00 %
15.10.2014 08:45 10,7 C 86 % 1007,7 hPa 0,0 l/m 0,0 km/h (0 Bft) W-NW 299 0 min 0,000 mm 1,0 UV-I 82 W/m 8,5 C 10,7 C 0,0 km/h (0 Bft) 0,00 %
15.10.2014 09:00 11,0 C 86 % 1007,5 hPa 0,0 l/m 0,0 km/h (0 Bft) S-SO 154 0 min 0,000 mm 1,0 UV-I 72 W/m 8,7 C 11,0 C 0,0 km/h (0 Bft) 0,00 %
15.10.2014 09:15 11,4 C 86 % 1007,7 hPa 0,0 l/m 0,0 km/h (0 Bft) W 268 0 min 0,000 mm 1,0 UV-I 113 W/m 9,1 C 11,4 C 0,0 km/h (0 Bft) 0,00 %
15.10.2014 09:30 11,7 C 84 % 1007,9 hPa 0,0 l/m 0,0 km/h (0 Bft) S-SW 199 0 min 0,000 mm 1,0 UV-I 116 W/m 9,1 C 11,7 C 0,0 km/h (0 Bft) 0,00 %
15.10.2014 09:45 12,1 C 82 % 1008,0 hPa 0,0 l/m 0,0 km/h (0 Bft) N 355 0 min 0,000 mm 1,0 UV-I 93 W/m 9,1 C 12,1 C 0,0 km/h (0 Bft) 0,00 %
15.10.2014 10:00 12,2 C 81 % 1007,8 hPa 0,0 l/m 0,0 km/h (0 Bft) S-SW 205 0 min 0,000 mm 1,0 UV-I 75 W/m 9,0 C 12,2 C 0,0 km/h (0 Bft) 0,00 %
15.10.2014 10:15 12,6 C 82 % 1007,4 hPa 0,0 l/m 0,7 km/h (0 Bft) W-SW 256 0 min 0,000 mm 2,0 UV-I 124 W/m 9,6 C 12,6 C 4,0 km/h (1 Bft) 0,00 %
15.10.2014 10:30 13,4 C 78 % 1007,2 hPa 0,0 l/m 0,0 km/h (0 Bft) O 85 0 min 0,000 mm 2,0 UV-I 182 W/m 9,6 C 13,4 C 0,0 km/h (0 Bft) 0,00 %
15.10.2014 10:45 14,4 C 74 % 1006,3 hPa 0,0 l/m 1,8 km/h (1 Bft) S 175 0 min 0,000 mm 2,0 UV-I 237 W/m 9,8 C 14,4 C 4,0 km/h (1 Bft) 0,00 %
15.10.2014 11:00 15,3 C 70 % 1006,4 hPa 0,0 l/m 0,7 km/h (0 Bft) N-NW 343 0 min 0,000 mm 2,0 UV-I 262 W/m 9,9 C 15,3 C 4,0 km/h (1 Bft) 0,00 %
15.10.2014 11:15 15,9 C 70 % 1006,1 hPa 0,0 l/m 0,7 km/h (0 Bft) W-SW 256 0 min 0,000 mm 3,0 UV-I 265 W/m 10,4 C 15,9 C 4,0 km/h (1 Bft) 0,00 %
15.10.2014 11:30 15,8 C 70 % 1007,0 hPa 0,0 l/m 0,0 km/h (0 Bft) S-SW 193 0 min 0,000 mm 1,0 UV-I 183 W/m 10,3 C 15,8 C 0,0 km/h (0 Bft) 0,00 %
15.10.2014 11:45 15,7 C 70 % 1006,5 hPa 0,0 l/m 0,4 km/h (0 Bft) S 190 0 min 0,000 mm 2,0 UV-I 182 W/m 10,2 C 15,7 C 4,0 km/h (1 Bft) 0,00 %
15.10.2014 12:00 16,3 C 68 % 1006,5 hPa 0,0 l/m 0,0 km/h (0 Bft) W-SW 250 0 min 0,000 mm 2,0 UV-I 207 W/m 10,4 C 16,3 C 0,0 km/h (0 Bft) 0,00 %
15.10.2014 12:15 16,1 C 69 % 1006,8 hPa 0,0 l/m 0,0 km/h (0 Bft) SW 234 0 min 0,000 mm 2,0 UV-I 201 W/m 10,4 C 16,1 C 0,0 km/h (0 Bft) 0,00 %
15.10.2014 12:30 16,3 C 67 % 1006,8 hPa 0,0 l/m 0,0 km/h (0 Bft) NO 49 0 min 0,000 mm 2,0 UV-I 189 W/m 10,2 C 16,3 C 0,0 km/h (0 Bft) 0,00 %
15.10.2014 12:45 16,5 C 65 % 1006,7 hPa 0,0 l/m 4,3 km/h (1 Bft) W-NW 287 0 min 0,000 mm 2,0 UV-I 203 W/m 9,9 C 16,5 C 7,9 km/h (2 Bft) 0,00 %
15.10.2014 13:00 16,8 C 65 % 1006,2 hPa 0,0 l/m 0,0 km/h (0 Bft) W 272 0 min 0,000 mm 2,0 UV-I 227 W/m 10,2 C 16,8 C 0,0 km/h (0 Bft) 0,00 %
15.10.2014 13:15 17,2 C 63 % 1005,7 hPa 0,0 l/m 0,7 km/h (0 Bft) W-SW 247 0 min 0,000 mm 3,0 UV-I 271 W/m 10,1 C 17,2 C 4,0 km/h (1 Bft) 0,00 %
15.10.2014 13:30 17,2 C 62 % 1005,5 hPa 0,0 l/m 0,0 km/h (0 Bft) SW 219 0 min 0,000 mm 2,0 UV-I 229 W/m 9,9 C 17,2 C 0,0 km/h (0 Bft) 0,00 %
15.10.2014 13:45 17,2 C 62 % 1005,0 hPa 0,0 l/m 0,0 km/h (0 Bft) W-SW 256 0 min 0,000 mm 2,0 UV-I 203 W/m 9,9 C 17,2 C 0,0 km/h (0 Bft) 0,00 %
15.10.2014 14:00 17,2 C 63 % 1005,3 hPa 0,0 l/m 0,0 km/h (0 Bft) W-SW 256 0 min 0,000 mm 2,0 UV-I 171 W/m 10,1 C 17,2 C 0,0 km/h (0 Bft) 0,00 %
15.10.2014 14:15 17,4 C 60 % 1005,3 hPa 0,0 l/m 0,0 km/h (0 Bft) W-SW 240 0 min 0,000 mm 2,0 UV-I 148 W/m 9,6 C 17,4 C 0,0 km/h (0 Bft) 0,00 %
15.10.2014 14:30 17,5 C 61 % 1005,8 hPa 0,0 l/m 0,0 km/h (0 Bft) SW 236 0 min 0,000 mm 2,0 UV-I 196 W/m 9,9 C 17,5 C 0,0 km/h (0 Bft) 0,00 %
15.10.2014 14:45 17,6 C 61 % 1005,3 hPa 0,0 l/m 0,0 km/h (0 Bft) SW 228 0 min 0,000 mm 2,0 UV-I 166 W/m 10,0 C 17,6 C 0,0 km/h (0 Bft) 0,00 %
15.10.2014 15:00 16,8 C 61 % 1006,0 hPa 0,0 l/m 0,0 km/h (0 Bft) S-SW 203 0 min 0,000 mm 2,0 UV-I 158 W/m 9,2 C 16,8 C 0,0 km/h (0 Bft) 0,00 %
15.10.2014 15:15 17,1 C 63 % 1005,4 hPa 0,0 l/m 0,0 km/h (0 Bft) NO 36 0 min 0,000 mm 2,0 UV-I 206 W/m 10,0 C 17,1 C 0,0 km/h (0 Bft) 0,00 %
15.10.2014 15:30 17,1 C 63 % 1005,8 hPa 0,0 l/m 0,0 km/h (0 Bft) O-SO 111 0 min 0,000 mm 1,0 UV-I 162 W/m 10,0 C 17,1 C 0,0 km/h (0 Bft) 0,00 %
15.10.2014 15:45 16,6 C 64 % 1005,6 hPa 0,0 l/m 0,0 km/h (0 Bft) O-NO 65 0 min 0,000 mm 1,0 UV-I 126 W/m 9,8 C 16,6 C 0,0 km/h (0 Bft) 0,00 %
15.10.2014 16:00 16,7 C 62 % 1005,6 hPa 0,0 l/m 0,0 km/h (0 Bft) N 355 0 min 0,000 mm 1,0 UV-I 172 W/m 9,4 C 16,7 C 0,0 km/h (0 Bft) 0,00 %
15.10.2014 16:15 16,8 C 61 % 1005,0 hPa 0,0 l/m 0,0 km/h (0 Bft) NO 35 0 min 0,000 mm 1,0 UV-I 164 W/m 9,2 C 16,8 C 0,0 km/h (0 Bft) 0,00 %
15.10.2014 16:30 16,8 C 62 % 1005,3 hPa 0,0 l/m 0,0 km/h (0 Bft) SO 134 15 min 0,000 mm 1,0 UV-I 148 W/m 9,5 C 16,8 C 0,0 km/h (0 Bft) 0,00 %
15.10.2014 16:45 16,6 C 62 % 1005,3 hPa 0,0 l/m 0,0 km/h (0 Bft) SO 130 15 min 0,000 mm 1,0 UV-I 154 W/m 9,3 C 16,6 C 0,0 km/h (0 Bft) 0,00 %
15.10.2014 17:00 16,5 C 62 % 1005,0 hPa 0,0 l/m 0,0 km/h (0 Bft) O-NO 78 15 min 0,000 mm 1,0 UV-I 175 W/m 9,2 C 16,5 C 0,0 km/h (0 Bft) 0,00 %
15.10.2014 17:15 16,5 C 63 % 1005,4 hPa 0,0 l/m 0,0 km/h (0 Bft) O 99 15 min 0,000 mm 1,0 UV-I 102 W/m 9,4 C 16,5 C 0,0 km/h (0 Bft) 0,00 %
15.10.2014 17:30 16,1 C 66 % 1005,6 hPa 0,0 l/m 0,0 km/h (0 Bft) O-SO 117 15 min 0,000 mm 0,0 UV-I 63 W/m 9,7 C 16,1 C 0,0 km/h (0 Bft) 0,00 %
15.10.2014 17:45 15,4 C 70 % 1005,8 hPa 0,0 l/m 0,0 km/h (0 Bft) SO 129 0 min 0,000 mm 0,0 UV-I 25 W/m 10,0 C 15,4 C 0,0 km/h (0 Bft) 0,00 %
15.10.2014 18:00 14,8 C 72 % 1005,9 hPa 0,0 l/m 0,0 km/h (0 Bft) SO 129 0 min 0,000 mm 0,0 UV-I 5 W/m 9,8 C 14,8 C 0,0 km/h (0 Bft) 0,00 %
15.10.2014 18:15 14,3 C 74 % 1005,9 hPa 0,0 l/m 0,0 km/h (0 Bft) SO 124 0 min 0,000 mm 0,0 UV-I 0 W/m 9,7 C 14,3 C 0,0 km/h (0 Bft) 0,00 %
15.10.2014 18:30 14,0 C 74 % 1006,1 hPa 0,0 l/m 0,0 km/h (0 Bft) S 172 0 min 0,000 mm 0,0 UV-I 0 W/m 9,4 C 14,0 C 0,0 km/h (0 Bft) 0,00 %
15.10.2014 18:45 13,7 C 74 % 1006,1 hPa 0,0 l/m 0,0 km/h (0 Bft) SO 138 0 min 0,000 mm 0,0 UV-I 0 W/m 9,2 C 13,7 C 0,0 km/h (0 Bft) 0,00 %
15.10.2014 19:00 13,5 C 77 % 1006,5 hPa 0,0 l/m 0,0 km/h (0 Bft) S 172 0 min 0,000 mm 0,0 UV-I 0 W/m 9,5 C 13,5 C 0,0 km/h (0 Bft) 0,00 %
15.10.2014 19:15 12,9 C 80 % 1006,5 hPa 0,0 l/m 0,0 km/h (0 Bft) S 172 0 min 0,000 mm 0,0 UV-I 0 W/m 9,5 C 12,9 C 0,0 km/h (0 Bft) 0,00 %
15.10.2014 19:30 12,5 C 80 % 1006,5 hPa 0,0 l/m 0,0 km/h (0 Bft) SO 141 0 min 0,000 mm 0,0 UV-I 0 W/m 9,1 C 12,5 C 0,0 km/h (0 Bft) 0,00 %
15.10.2014 19:45 12,7 C 79 % 1006,6 hPa 0,0 l/m 0,0 km/h (0 Bft) S 178 0 min 0,000 mm 0,0 UV-I 0 W/m 9,2 C 12,7 C 0,0 km/h (0 Bft) 0,00 %
15.10.2014 20:00 12,3 C 80 % 1006,7 hPa 0,0 l/m 0,0 km/h (0 Bft) S 176 0 min 0,000 mm 0,0 UV-I 0 W/m 8,9 C 12,3 C 0,0 km/h (0 Bft) 0,00 %
15.10.2014 20:15 12,0 C 81 % 1006,8 hPa 0,0 l/m 0,0 km/h (0 Bft) S 178 0 min 0,000 mm 0,0 UV-I 0 W/m 8,8 C 12,0 C 0,0 km/h (0 Bft) 0,00 %
15.10.2014 20:30 12,0 C 81 % 1006,9 hPa 0,0 l/m 0,0 km/h (0 Bft) S 172 0 min 0,000 mm 0,0 UV-I 0 W/m 8,8 C 12,0 C 0,0 km/h (0 Bft) 0,00 %
15.10.2014 20:45 11,8 C 82 % 1006,8 hPa 0,0 l/m 0,0 km/h (0 Bft) S 174 0 min 0,000 mm 0,0 UV-I 0 W/m 8,8 C 11,8 C 0,0 km/h (0 Bft) 0,00 %
15.10.2014 21:00 11,6 C 83 % 1006,8 hPa 0,0 l/m 0,0 km/h (0 Bft) S 171 0 min 0,000 mm 0,0 UV-I 0 W/m 8,8 C 11,6 C 0,0 km/h (0 Bft) 0,00 %
15.10.2014 21:15 11,6 C 83 % 1006,8 hPa 0,0 l/m 0,0 km/h (0 Bft) S 175 0 min 0,000 mm 0,0 UV-I 0 W/m 8,8 C 11,6 C 0,0 km/h (0 Bft) 0,00 %
15.10.2014 21:30 11,6 C 83 % 1007,0 hPa 0,0 l/m 0,0 km/h (0 Bft) S 175 0 min 0,000 mm 0,0 UV-I 0 W/m 8,8 C 11,6 C 0,0 km/h (0 Bft) 0,00 %
15.10.2014 21:45 11,5 C 83 % 1006,9 hPa 0,0 l/m 0,0 km/h (0 Bft) S 175 0 min 0,000 mm 0,0 UV-I 0 W/m 8,7 C 11,5 C 0,0 km/h (0 Bft) 0,00 %
15.10.2014 22:00 11,5 C 83 % 1007,2 hPa 0,0 l/m 0,0 km/h (0 Bft) S 175 0 min 0,000 mm 0,0 UV-I 0 W/m 8,7 C 11,5 C 0,0 km/h (0 Bft) 0,00 %
15.10.2014 22:15 11,5 C 84 % 1007,4 hPa 0,0 l/m 0,0 km/h (0 Bft) SW 222 0 min 0,000 mm 0,0 UV-I 0 W/m 8,9 C 11,5 C 0,0 km/h (0 Bft) 0,00 %
15.10.2014 22:30 11,6 C 84 % 1007,2 hPa 0,0 l/m 0,0 km/h (0 Bft) SW 222 0 min 0,000 mm 0,0 UV-I 0 W/m 9,0 C 11,6 C 0,0 km/h (0 Bft) 0,00 %
15.10.2014 22:45 11,6 C 84 % 1007,2 hPa 0,0 l/m 0,0 km/h (0 Bft) SW 222 0 min 0,000 mm 0,0 UV-I 0 W/m 9,0 C 11,6 C 0,0 km/h (0 Bft) 0,00 %
15.10.2014 23:00 11,5 C 84 % 1007,2 hPa 0,0 l/m 0,0 km/h (0 Bft) SW 222 0 min 0,000 mm 0,0 UV-I 0 W/m 8,9 C 11,5 C 0,0 km/h (0 Bft) 0,00 %
15.10.2014 23:15 11,4 C 84 % 1007,3 hPa 0,0 l/m 0,0 km/h (0 Bft) SW 222 0 min 0,000 mm 0,0 UV-I 0 W/m 8,8 C 11,4 C 0,0 km/h (0 Bft) 0,00 %
15.10.2014 23:30 11,4 C 84 % 1007,1 hPa 0,0 l/m 0,0 km/h (0 Bft) SW 222 0 min 0,000 mm 0,0 UV-I 0 W/m 8,8 C 11,4 C 0,0 km/h (0 Bft) 0,00 %
15.10.2014 23:45 11,4 C 84 % 1007,2 hPa 0,0 l/m 0,0 km/h (0 Bft) SW 222 0 min 0,000 mm 0,0 UV-I 0 W/m 8,8 C 11,4 C 0,0 km/h (0 Bft) 0,00 %
_ Min-Zeit 05:00 14:15 13:45 - 00:00 - - - - - - 05:00 05:00 00:00 00:00
Minimum _ 8,7 C 60 % 1005,0 hPa - 0,0 km/h (0 Bft) - - - - - - 6,7 C 8,7 C 0,0 km/h (0 Bft) 0,00 %
_ Max-Zeit 14:45 01:30 09:45 00:00 12:45 - - 16:30 00:00 11:15 13:15 11:15 14:45 12:45 00:00
Maximum _ 17,6 C 87 % 1008,0 hPa 0,0 l/m 4,3 km/h
W-NW (1 Bft)
- - 15 min 0,000 mm 3,0 UV-I 271 W/m 10,4 C 17,6 C 7,9 km/h
W-NW (2 Bft)
0,00 %
Durchschnitt _ 12,5 C 78 % 1006,7 hPa #0,0 l/m 0,1 km/h (0 Bft) S - #1:15 h #0,000 mm 1,6 UV-I 150 W/m 8,7 C 12,5 C 0,3 km/h (0 Bft) 0,00 %